This demonstration page uses our WeatherBlox Daily Observations layout. Learn more.

Hourly Observations for January 5, 2019

Temp ( °F °C ) Dew Point ( °F °C ) Humidity (%) Winds ( mph kmh ) Pressure ( in mb ) Visibility ( mi km ) Precip ( " mm )
12:15 am 00:15 Clear 39 3.8 31 -0.6 73 73 WSW 6 9 30 1016 10 16.0934 0 0
12:35 am 00:35 Clear 40 4.4 31 -0.6 70 70 WSW 3 6 30 1016 10 16.0934 0 0
12:55 am 00:55 Clear 40 4.7 31 -0.6 69 69 WSW 6 9 30 1016 10 16.0934 0 0
1:15 am 01:15 Clear 41 4.9 31 -0.8 67 67 WSW 5 7 30 1016 10 16.0934 0 0
1:35 am 01:35 Clear 39 3.7 30 -1.1 71 71 WSW 3 6 30 1016 10 16.0934 0 0
1:55 am 01:55 Clear 40 4.2 30 -1.3 68 68 W 8 13 30 1016 10 16.0934 0 0
2:15 am 02:15 Clear 39 4.1 30 -1 70 70 W 9 15 30 1016 10 16.0934 0 0
2:35 am 02:35 Clear 40 4.2 31 -0.8 70 70 WSW 3 6 30 1016 10 16.0934 0 0
2:55 am 02:55 Clear 40 4.6 31 -0.8 68 68 WSW 8 13 30 1016 10 16.0934 0 0
3:15 am 03:15 Clear 39 3.7 30 -1.2 71 71 W 9 15 30 1016 10 16.0934 0 0
3:35 am 03:35 Clear 38 3.5 30 -1.2 72 72 W 9 15 30 1016 10 16.0934 0 0
3:55 am 03:55 Clear 39 4.1 30 -1.2 69 69 W 9 15 30 1016 10 16.0934 0 0
4:15 am 04:15 Clear 39 3.8 29 -1.6 68 68 NW 6 9 30 1016 10 16.0934 0 0
4:35 am 04:35 Clear 36 2 28 -2 75 75 W 5 7 30.03 1017 10 16.0934 0 0
4:55 am 04:55 Clear 36 2.1 28 -2.1 74 74 Calm 30.03 1017 10 16.0934 0 0
5:15 am 05:15 Clear 33 0.8 28 -2.5 79 79 WNW 3 6 30.03 1017 10 16.0934 0 0
5:35 am 05:35 Clear 35 1.5 28 -2.2 77 77 W 5 7 30.03 1017 10 16.0934 0 0
5:55 am 05:55 Clear 33 0.6 27 -2.6 79 79 W 5 7 30.03 1017 10 16.0934 0 0
6:15 am 06:15 Clear 32 0 27 -2.7 82 82 W 5 7 30.03 1017 10 16.0934 0 0
6:35 am 06:35 Clear 30 -1.1 26 -3.2 86 86 W 6 9 30.06 1018 10 16.0934 0 0
6:55 am 06:55 Clear 31 -0.4 27 -3 83 83 W 5 7 30.03 1017 10 16.0934 0 0
7:15 am 07:15 Clear 32 0 27 -2.7 82 82 W 5 7 30.03 1017 10 16.0934 0 0
7:35 am 07:35 Clear 30 -0.9 26 -3.3 84 84 W 6 9 30.09 1019 10 16.0934 0 0
7:55 am 07:55 Clear 29 -1.5 26 -3.5 86 86 W 7 11 30.09 1019 10 16.0934 0 0
8:15 am 08:15 Sunny 32 0 27 -2.8 82 82 W 7 11 30.06 1018 10 16.0934 0 0
8:35 am 08:35 Sunny 32 0.1 27 -2.6 82 82 W 7 11 30.06 1018 10 16.0934 0 0
8:55 am 08:55 Sunny 34 1.3 28 -2.1 78 78 W 6 9 30.06 1018 10 16.0934 0 0
9:15 am 09:15 Sunny 36 2.1 29 -1.6 77 77 W 6 9 30.06 1018 10 16.0934 0 0
9:35 am 09:35 Sunny 39 4.1 30 -1.2 69 69 W 6 9 30.06 1018 10 16.0934 0 0
9:55 am 09:55 Sunny 41 5.2 31 -0.8 66 66 W 3 6 30.06 1018 10 16.0934 0 0
10:15 am 10:15 Sunny 44 6.7 31 -0.6 60 60 W 5 7 30.03 1017 10 16.0934 0 0
10:35 am 10:35 Sunny 47 8.3 32 0 56 56 W 3 6 30.03 1017 10 16.0934 0 0
10:55 am 10:55 Sunny 47 8.5 32 0.1 56 56 W 3 6 30.03 1017 10 16.0934 0 0
11:15 am 11:15 Sunny 50 9.8 32 0.2 52 52 Calm 30 1016 10 16.0934 0 0
11:35 am 11:35 Sunny 51 10.6 32 0 48 48 Calm 29.97 1015 10 16.0934 0 0
11:55 am 11:55 Sunny 50 10.1 36 2.4 59 59 Calm 29.97 1015 10 16.0934 0 0
12:15 pm 12:15 Sunny 50 10.1 37 2.5 60 60 Calm 29.97 1015 10 16.0934 0 0
12:35 pm 12:35 Sunny 50 10 37 3 62 62 Calm 29.97 1015 10 16.0934 0 0
12:55 pm 12:55 Sunny 50 9.8 36 2.2 59 59 Calm 29.97 1015 10 16.0934 0 0
1:15 pm 13:15 Sunny 51 10.3 34 1.1 53 53 Calm 29.97 1015 10 16.0934 0 0
1:35 pm 13:35 Sunny 49 9.5 33 0.7 55 55 Calm 29.97 1015 10 16.0934 0 0
1:55 pm 13:55 Sunny 48 9 37 2.6 65 65 Calm 29.97 1015 10 16.0934 0 0
2:15 pm 14:15 Sunny 49 9.4 37 3 65 65 NE 3 6 29.97 1015 10 16.0934 0 0
2:35 pm 14:35 Sunny 49 9.2 38 3.4 67 67 Calm 29.97 1015 10 16.0934 0 0
2:55 pm 14:55 Sunny 49 9.3 39 3.9 69 69 Calm 29.97 1015 10 16.0934 0 0
3:15 pm 15:15 Sunny 48 9 39 4 71 71 N 3 6 29.97 1015 10 16.0934 0 0
3:35 pm 15:35 Sunny 48 8.8 36 2 63 63 N 3 6 30 1016 10 16.0934 0 0
3:55 pm 15:55 Sunny 47 8.1 37 2.7 69 69 N 3 6 30 1016 10 16.0934 0 0
4:15 pm 16:15 Sunny 46 7.6 38 3.5 76 76 NNE 3 6 30 1016 10 16.0934 0 0
4:35 pm 16:35 Sunny 45 7.1 38 3.3 77 77 Calm 30 1016 10 16.0934 0 0
4:55 pm 16:55 Sunny 43 6.1 37 2.5 78 78 Calm 30 1016 10 16.0934 0 0
5:15 pm 17:15 Sunny 42 5.5 36 2.1 79 79 Calm 30.03 1017 10 16.0934 0 0
5:35 pm 17:35 Clear 40 4.2 35 1.9 85 85 NNE 3 6 30.03 1017 10 16.0934 0 0
5:55 pm 17:55 Clear 38 3.3 34 1.2 86 86 NE 5 7 30.03 1017 10 16.0934 0 0
6:15 pm 18:15 Clear 37 2.8 35 1.4 91 91 NE 6 9 30.03 1017 10 16.0934 0 0
6:35 pm 18:35 Clear 37 2.9 33 0.7 86 86 NE 9 15 30.06 1018 10 16.0934 0 0
6:55 pm 18:55 Clear 36 2.4 33 0.7 89 89 NE 7 11 30.09 1019 10 16.0934 0 0
7:15 pm 19:15 Clear 36 2.3 33 0.5 88 88 NE 8 13 30.09 1019 10 16.0934 0 0
7:35 pm 19:35 Clear 36 2.2 33 0.6 89 89 NE 6 9 30.09 1019 10 16.0934 0 0
7:55 pm 19:55 Clear 36 2.4 34 1.1 91 91 NE 7 11 30.09 1019 10 16.0934 0 0
8:15 pm 20:15 Clear 37 2.5 34 0.9 89 89 NE 6 9 30.09 1019 10 16.0934 0 0
8:35 pm 20:35 Clear 37 2.5 34 1 90 90 ENE 3 6 30.09 1019 10 16.0934 0 0
8:55 pm 20:55 Clear 37 2.9 34 0.9 87 87 E 5 7 30.06 1018 10 16.0934 0 0
9:15 pm 21:15 Clear 37 3 34 1 87 87 E 7 11 30.06 1018 10 16.0934 0 0
9:35 pm 21:35 Clear 38 3.1 34 0.9 86 86 E 9 15 30.03 1017 10 16.0934 0 0
9:55 pm 21:55 Clear 38 3.3 34 1 85 85 E 9 15 30.03 1017 10 16.0934 0 0
10:15 pm 22:15 Clear 37 2.5 34 1 90 90 E 10 17 30.03 1017 10 16.0934 0 0
10:35 pm 22:35 Clear 37 2.8 35 1.6 92 92 E 9 15 30.03 1017 10 16.0934 0 0
10:55 pm 22:55 Clear 37 2.5 34 1.2 91 91 E 8 13 30.03 1017 10 16.0934 0 0
11:15 pm 23:15 Clear 35 1.9 33 0.8 93 93 E 8 13 30.03 1017 10 16.0934 0 0
11:35 pm 23:35 Clear 37 2.6 35 1.7 94 94 E 9 15 30 1016 10 16.0934 0 0
11:55 pm 23:55 Clear 36 2 34 1.2 95 95 E 8 13 30.06 1018 10 16.0934 0 0

Powered by AerisWeather